GLO2088 SBGL-SBCF

Flight info

Callsign GLO2088
Flight time 0h 38m
Altitude 37000
Route DAKDA UZ4 TOKUR
Aircraft B737/M-SDFGIKLORWXY/LB1

Departure

Time 2026-05-07 01:52
Airport Rio Galeão – Tom Jobim International Airport (SBGL)

Arrival

Time 2026-05-07 02:31
Airport Tancredo Neves International Airport (SBCF)
Time Latitude Longitude Altitude Speed Heading
2026-05-07 01:35 -22.81266 -43.25084 21 ft 0 kts 359°
2026-05-07 01:43 -22.81270 -43.25084 21 ft 3 kts 358°
2026-05-07 01:44 -22.81293 -43.25081 23 ft 3 kts 339°
2026-05-07 01:44 -22.81312 -43.25069 21 ft 3 kts 302°
2026-05-07 01:44 -22.81317 -43.25051 22 ft 1 kts 264°
2026-05-07 01:44 -22.81317 -43.25046 21 ft 0 kts 264°
2026-05-07 01:47 -22.81317 -43.25049 22 ft 3 kts 264°
2026-05-07 01:47 -22.81324 -43.25116 21 ft 15 kts 263°
2026-05-07 01:48 -22.81295 -43.25238 22 ft 18 kts 303°
2026-05-07 01:48 -22.81228 -43.25348 23 ft 17 kts 303°
2026-05-07 01:48 -22.81126 -43.25401 21 ft 17 kts 357°
2026-05-07 01:48 -22.81015 -43.25383 21 ft 15 kts
2026-05-07 01:49 -22.80950 -43.25420 23 ft 11 kts 299°
2026-05-07 01:49 -22.80918 -43.25495 27 ft 11 kts 295°
2026-05-07 01:49 -22.80880 -43.25581 28 ft 15 kts 295°
2026-05-07 01:49 -22.80827 -43.25670 27 ft 11 kts 311°
2026-05-07 01:50 -22.80757 -43.25675 27 ft 11 kts 27°
2026-05-07 01:50 -22.80691 -43.25626 28 ft 12 kts 36°
2026-05-07 01:50 -22.80615 -43.25567 28 ft 14 kts 35°
2026-05-07 01:50 -22.80536 -43.25505 30 ft 14 kts 40°
2026-05-07 01:51 -22.80467 -43.25437 28 ft 13 kts 30°
2026-05-07 01:51 -22.80386 -43.25459 28 ft 13 kts 327°
2026-05-07 01:51 -22.80311 -43.25510 30 ft 12 kts 336°
2026-05-07 01:51 -22.80230 -43.25497 26 ft 12 kts 33°
2026-05-07 01:52 -22.80167 -43.25428 24 ft 17 kts 69°
2026-05-07 01:52 -22.80078 -43.25086 30 ft 95 kts 74°
2026-05-07 01:52 -22.79816 -43.24071 60 ft 183 kts 75°
2026-05-07 01:52 -22.79469 -43.22646 1077 ft 196 kts 76°
2026-05-07 01:53 -22.79157 -43.21241 2607 ft 192 kts 75°
2026-05-07 01:53 -22.78819 -43.19744 3535 ft 220 kts 76°
2026-05-07 01:53 -22.78437 -43.18029 4361 ft 241 kts 76°
2026-05-07 01:53 -22.78047 -43.16243 5531 ft 245 kts 76°
2026-05-07 01:54 -22.77651 -43.14403 6603 ft 261 kts 76°
2026-05-07 01:54 -22.77235 -43.12458 7621 ft 273 kts 76°
2026-05-07 01:54 -22.76803 -43.10427 8866 ft 279 kts 76°
2026-05-07 01:54 -22.76365 -43.08357 10124 ft 284 kts 76°
2026-05-07 01:55 -22.75912 -43.06218 10980 ft 302 kts 76°
2026-05-07 01:55 -22.75418 -43.03893 11570 ft 326 kts 76°
2026-05-07 01:55 -22.74464 -43.01645 12525 ft 335 kts 50°
2026-05-07 01:55 -22.72621 -43.00096 13664 ft 339 kts 25°
2026-05-07 01:56 -22.70367 -42.99383 14630 ft 345 kts 11°
2026-05-07 01:56 -22.67974 -42.98912 15497 ft 353 kts 10°
2026-05-07 01:56 -22.65527 -42.98449 16362 ft 361 kts 10°
2026-05-07 01:56 -22.63032 -42.97986 17225 ft 367 kts 10°
2026-05-07 01:57 -22.60468 -42.97511 17853 ft 381 kts 10°
2026-05-07 01:57 -22.57780 -42.97011 18154 ft 402 kts 10°
2026-05-07 01:57 -22.54931 -42.96478 18172 ft 429 kts 10°
2026-05-07 01:57 -22.51943 -42.95917 18182 ft 451 kts 10°
2026-05-07 01:58 -22.48792 -42.95324 18061 ft 457 kts
2026-05-07 01:58 -22.45705 -42.94709 17573 ft 440 kts 11°
2026-05-07 01:58 -22.42786 -42.94159 17840 ft 412 kts 10°
2026-05-07 01:58 -22.40022 -42.93663 17994 ft 394 kts 10°
2026-05-07 01:59 -22.37332 -42.93172 18342 ft 389 kts 10°
2026-05-07 01:59 -22.34687 -42.92681 19286 ft 382 kts 10°
2026-05-07 01:59 -22.32042 -42.92398 20081 ft 383 kts
2026-05-07 01:59 -22.29407 -42.92622 20728 ft 387 kts 351°
2026-05-07 02:00 -22.26725 -42.93085 21390 ft 391 kts 349°
2026-05-07 02:00 -22.24024 -42.93582 22084 ft 394 kts 349°
2026-05-07 02:00 -22.21323 -42.94061 22950 ft 391 kts 350°
2026-05-07 02:00 -22.18643 -42.94514 23891 ft 387 kts 350°
2026-05-07 02:01 -22.15982 -42.94954 24637 ft 386 kts 350°
2026-05-07 02:01 -22.13319 -42.95392 25244 ft 389 kts 350°
2026-05-07 02:01 -22.10660 -42.95831 25851 ft 392 kts 350°
2026-05-07 02:01 -22.07963 -42.96276 26527 ft 392 kts 349°
2026-05-07 02:02 -22.05249 -42.96724 27046 ft 396 kts 349°
2026-05-07 02:02 -22.02517 -42.97175 27168 ft 396 kts 349°
2026-05-07 02:02 -21.99794 -42.97624 27185 ft 395 kts 349°
2026-05-07 02:02 -21.97075 -42.98073 27193 ft 395 kts 349°
2026-05-07 02:03 -21.94356 -42.98521 27199 ft 395 kts 349°
2026-05-07 02:03 -21.91655 -42.98967 27204 ft 403 kts 349°
2026-05-07 02:03 -21.88828 -42.99435 27205 ft 418 kts 349°
2026-05-07 02:03 -21.85894 -42.99920 27201 ft 432 kts 350°
2026-05-07 02:04 -21.82865 -43.00420 27198 ft 445 kts 350°
2026-05-07 02:04 -21.79772 -43.00929 27200 ft 456 kts 350°
2026-05-07 02:04 -21.76592 -43.01452 27192 ft 465 kts 350°
2026-05-07 02:04 -21.73360 -43.01983 27193 ft 474 kts 350°
2026-05-07 02:05 -21.70072 -43.02523 27194 ft 481 kts 350°
2026-05-07 02:05 -21.66741 -43.03070 27188 ft 487 kts 350°
2026-05-07 02:05 -21.63380 -43.03621 27180 ft 492 kts 350°
2026-05-07 02:05 -21.60030 -43.04170 27180 ft 493 kts 350°
2026-05-07 02:06 -21.56634 -43.04727 27171 ft 493 kts 350°
2026-05-07 02:06 -21.53235 -43.05284 27179 ft 493 kts 350°
2026-05-07 02:06 -21.49837 -43.05841 27176 ft 493 kts 350°
2026-05-07 02:06 -21.47589 -43.06210 27172 ft 493 kts 350°
2026-05-07 02:07 -21.43091 -43.06946 27184 ft 493 kts 350°
2026-05-07 02:07 -21.36306 -43.08057 27182 ft 492 kts 350°
2026-05-07 02:07 -21.34023 -43.08431 27180 ft 492 kts 350°
2026-05-07 02:08 -21.30676 -43.08978 27182 ft 492 kts 350°
2026-05-07 02:08 -21.27277 -43.09534 27180 ft 492 kts 350°
2026-05-07 02:08 -21.22779 -43.10263 27179 ft 492 kts 350°
2026-05-07 02:08 -21.19393 -43.10810 27181 ft 492 kts 350°
2026-05-07 02:09 -21.17104 -43.11179 27178 ft 492 kts 350°
2026-05-07 02:09 -21.13757 -43.11719 27189 ft 492 kts 350°
2026-05-07 02:09 -21.10365 -43.12266 27187 ft 492 kts 350°
2026-05-07 02:09 -21.06977 -43.12813 27180 ft 492 kts 350°
2026-05-07 02:10 -21.03591 -43.13359 27181 ft 492 kts 350°
2026-05-07 02:10 -21.00205 -43.13906 27182 ft 492 kts 350°
2026-05-07 02:10 -20.96821 -43.14451 27183 ft 492 kts 351°
2026-05-07 02:10 -20.93429 -43.14998 27183 ft 492 kts 350°
2026-05-07 02:11 -20.90034 -43.15545 27185 ft 493 kts 350°
2026-05-07 02:11 -20.86639 -43.16092 27186 ft 493 kts 351°
2026-05-07 02:11 -20.83290 -43.16631 27186 ft 493 kts 351°
2026-05-07 02:11 -20.79932 -43.17366 27164 ft 491 kts 339°
2026-05-07 02:12 -20.76800 -43.18804 27209 ft 489 kts 334°
2026-05-07 02:12 -20.73706 -43.20345 27191 ft 490 kts 333°
2026-05-07 02:12 -20.70618 -43.21890 27194 ft 490 kts 333°
2026-05-07 02:12 -20.67519 -43.23422 27192 ft 490 kts 334°
2026-05-07 02:13 -20.64446 -43.24919 27187 ft 491 kts 334°
2026-05-07 02:13 -20.61330 -43.26419 27187 ft 491 kts 334°
2026-05-07 02:13 -20.58207 -43.27912 27192 ft 491 kts 334°
2026-05-07 02:13 -20.55081 -43.29402 27194 ft 491 kts 334°
2026-05-07 02:14 -20.51990 -43.30874 27193 ft 492 kts 334°
2026-05-07 02:14 -20.48866 -43.32362 27189 ft 492 kts 334°
2026-05-07 02:14 -20.45736 -43.33854 27191 ft 492 kts 334°
2026-05-07 02:14 -20.42613 -43.35343 27191 ft 489 kts 334°
2026-05-07 02:15 -20.39566 -43.36793 27172 ft 470 kts 334°
2026-05-07 02:15 -20.36606 -43.38203 26716 ft 463 kts 334°
2026-05-07 02:15 -20.33682 -43.39597 26147 ft 457 kts 334°
2026-05-07 02:15 -20.30802 -43.40968 25537 ft 451 kts 334°
2026-05-07 02:16 -20.27946 -43.42327 24957 ft 445 kts 335°
2026-05-07 02:16 -20.25168 -43.43645 24439 ft 438 kts 335°
2026-05-07 02:16 -20.22396 -43.44959 23905 ft 432 kts 335°
2026-05-07 02:16 -20.19662 -43.46255 23318 ft 426 kts 335°
2026-05-07 02:17 -20.16975 -43.47528 22780 ft 419 kts 335°
2026-05-07 02:17 -20.14316 -43.48788 22253 ft 414 kts 335°
2026-05-07 02:17 -20.11721 -43.50018 21752 ft 411 kts 335°
2026-05-07 02:17 -20.09113 -43.51254 21262 ft 408 kts 335°
2026-05-07 02:18 -20.06534 -43.52475 20765 ft 405 kts 335°
2026-05-07 02:18 -20.03958 -43.53695 20293 ft 404 kts 336°
2026-05-07 02:18 -20.01422 -43.54895 19813 ft 403 kts 336°
2026-05-07 02:18 -19.98861 -43.56106 19328 ft 403 kts 336°
2026-05-07 02:19 -19.96299 -43.57318 18819 ft 402 kts 336°
2026-05-07 02:19 -19.93746 -43.58525 18306 ft 398 kts 336°
2026-05-07 02:19 -19.91231 -43.59714 17775 ft 391 kts 336°
2026-05-07 02:19 -19.88761 -43.60880 17300 ft 384 kts 336°
2026-05-07 02:20 -19.86336 -43.62043 16837 ft 380 kts 334°
2026-05-07 02:20 -19.84114 -43.63478 16383 ft 378 kts 323°
2026-05-07 02:20 -19.82112 -43.65273 15949 ft 376 kts 319°
2026-05-07 02:20 -19.80167 -43.67119 15486 ft 373 kts 319°
2026-05-07 02:21 -19.78232 -43.68960 15051 ft 371 kts 319°
2026-05-07 02:21 -19.76306 -43.70778 14593 ft 369 kts 319°
2026-05-07 02:21 -19.74388 -43.72569 14151 ft 367 kts 320°
2026-05-07 02:21 -19.72470 -43.74350 13659 ft 364 kts 320°
2026-05-07 02:22 -19.70564 -43.76116 13193 ft 360 kts 320°
2026-05-07 02:22 -19.68710 -43.77834 12786 ft 357 kts 320°
2026-05-07 02:22 -19.66864 -43.79544 12391 ft 352 kts 320°
2026-05-07 02:22 -19.65017 -43.81255 11955 ft 351 kts 320°
2026-05-07 02:23 -19.63192 -43.82945 11521 ft 345 kts 320°
2026-05-07 02:23 -19.61400 -43.84605 11101 ft 339 kts 320°
2026-05-07 02:23 -19.59638 -43.86236 10693 ft 333 kts 320°
2026-05-07 02:23 -19.57922 -43.87823 10298 ft 328 kts 321°
2026-05-07 02:24 -19.56230 -43.89388 10159 ft 313 kts 321°
2026-05-07 02:24 -19.54636 -43.90864 10163 ft 296 kts 321°
2026-05-07 02:24 -19.53119 -43.92267 10023 ft 281 kts 321°
2026-05-07 02:24 -19.51661 -43.93613 9536 ft 276 kts 321°
2026-05-07 02:25 -19.50205 -43.94957 8925 ft 277 kts 321°
2026-05-07 02:25 -19.48744 -43.96305 8398 ft 280 kts 321°
2026-05-07 02:25 -19.47267 -43.97668 7858 ft 286 kts 321°
2026-05-07 02:25 -19.45828 -43.99089 7437 ft 288 kts 310°
2026-05-07 02:26 -19.44983 -44.01002 7097 ft 290 kts 281°
2026-05-07 02:26 -19.45060 -44.03108 6771 ft 286 kts 253°
2026-05-07 02:26 -19.45946 -44.04933 6453 ft 275 kts 231°
2026-05-07 02:26 -19.47161 -44.06441 6153 ft 260 kts 226°
2026-05-07 02:27 -19.48375 -44.07771 5806 ft 247 kts 211°
2026-05-07 02:27 -19.49909 -44.08222 5649 ft 220 kts 169°
2026-05-07 02:27 -19.51252 -44.07666 5452 ft 201 kts 144°
2026-05-07 02:27 -19.52383 -44.06883 5199 ft 193 kts 141°
2026-05-07 02:28 -19.53448 -44.06063 5041 ft 184 kts 137°
2026-05-07 02:28 -19.54395 -44.05222 4817 ft 170 kts 134°
2026-05-07 02:28 -19.55263 -44.04416 4598 ft 163 kts 134°
2026-05-07 02:28 -19.56092 -44.03644 4387 ft 153 kts 134°
2026-05-07 02:29 -19.56850 -44.02939 4256 ft 142 kts 134°
2026-05-07 02:29 -19.57589 -44.02249 4032 ft 138 kts 135°
2026-05-07 02:29 -19.58311 -44.01578 3854 ft 138 kts 135°
2026-05-07 02:29 -19.59042 -44.00897 3694 ft 141 kts 136°
2026-05-07 02:30 -19.59779 -44.00211 3507 ft 140 kts 137°
2026-05-07 02:30 -19.60512 -43.99531 3348 ft 141 kts 137°
2026-05-07 02:30 -19.61254 -43.98835 3171 ft 145 kts 137°
2026-05-07 02:30 -19.62013 -43.98128 2957 ft 145 kts 139°
2026-05-07 02:31 -19.62766 -43.97443 2835 ft 135 kts 136°
2026-05-07 02:31 -19.63355 -43.96890 2830 ft 91 kts 139°
2026-05-07 02:31 -19.63572 -43.96642 2830 ft 19 kts 111°
2026-05-07 02:31 -19.63597 -43.96568 2831 ft 8 kts 109°
2026-05-07 02:32 -19.63608 -43.96512 2831 ft 8 kts 83°
2026-05-07 02:32 -19.63567 -43.96483 2831 ft 7 kts
2026-05-07 02:32 -19.63522 -43.96509 2831 ft 8 kts 319°
2026-05-07 02:32 -19.63478 -43.96550 2831 ft 9 kts 320°
2026-05-07 02:33 -19.63420 -43.96602 2831 ft 13 kts 319°
2026-05-07 02:33 -19.63346 -43.96671 2831 ft 15 kts 319°
2026-05-07 02:33 -19.63262 -43.96701 2831 ft 14 kts 36°
2026-05-07 02:33 -19.63201 -43.96639 2833 ft 10 kts 30°
2026-05-07 02:34 -19.63145 -43.96653 2832 ft 4 kts 323°
2026-05-07 02:34 -19.63135 -43.96652 2832 ft 1 kts 20°
2026-05-07 02:34 -19.63120 -43.96641 2832 ft 6 kts 39°
2026-05-07 02:34 -19.63095 -43.96611 2832 ft 5 kts 50°
2026-05-07 02:35 -19.63078 -43.96590 2832 ft 0 kts 49°